MET994 - Hong Kong to Kuala Lumpur International Airport

Airbus A330-243
787MT
3 hrs 30 mins
1375 nm
Scheduled - M | TU | TH

Bid/PiRep Status

Bid was submitted on January 2nd, 2017 16:27 UTC.
PiRep # 74577: Approved by Dave Nichols on January 3rd, 2017 10:15 UTC

Departure

Departing from
Hong Kong (HKG)
Departure gate
Terminal 1
Scheduled Departure
GMT 0715
Local 1515
METAR VHHH 201800Z 11007KT 9999 FEW022 29/25 Q1008 NOSIG
TAF TAF VHHH 201700Z 2018/2124 11010KT 9999 FEW025 TX33/2106Z TN28/2022Z TN27/2122Z TEMPO 2018/2104 VRB05KT TEMPO 2104/2109 28010KT TEMPO 2109/2118 VRB05KT TEMPO 2120/2124 3000 SHRA FEW015CB SCT025
  • No charts available

Arrival

Arriving at
Kuala Lumpur International Airport (KUL)
Arrival gate
Unassigned
Scheduled Arrival
GMT 1045
Local 1845
METAR WMKK 201800Z 00000KT 9999 FEW017CB SCT140 BKN280 26/23 Q1011 NOSIG
TAF TAF WMKK 201700Z 2018/2200 VRB03KT 9999 FEW017CB SCT140 BKN280 TEMPO 2018/2022 4000 TSRA FEW015CB SCT018 TEMPO 2023/2102 6000 -TSRA FEW008 FEW016CB PROB30 TEMPO 2107/2111 3000 TSRA FEW015CB

Route Map

Planning Resources

PECA1A SIKOU A202 SAMAS G221 PCA TSN L637 BITOD IKUKO PULIP PULI1V
PECAN V10 ALLEY V31 SURFA V11 IDOSI A1 BUNTA G221 PCA W12 BMT W1 AC L644 CN L642 ENREP M763 TAXUL Y331 PIBOS
SANDI2A SANDI L642 ENREO M763 PIBOS PIBOSA
CH L642 VEPLI UGPEK VPK G584 VKL
PECAN1A PECAN V12 EPDOS L642 ENREP M763 TAXUL Y349 PULIP
Route:
OFP Layout:
Units:
Detailed Navlog:
ETOPS Planning:
Plan Stepclimbs:
Runway Analysis:
Include NOTAMS:
FIR NOTAMS:
Flight Maps:

Return Flights

MET995
Airbus A330-243
1145 GMT

Popularity

Hub Current Bids PiReps this month Total PiReps
KMCI 0 0 2
KLAX 0 0 3
KBOS 0 0 0